Lapse_Rate
6.6 6.8 6.7 6.5 5.9 6.1 6.0 5.8 5.9 6.2 6.3 6.3 6.2 6.5 6.3 6.2 6.2 6.0 5.9 5.8 5.7 5.5 5.3 5.1 5.2 5.1 5.1 5.3 5.5 5.0 5.4 5.3 5.1 5.2 5.4 5.1 5.1 5.1 5.2 5.2 5.4 5.2 5.6 5.3 5.3 5.8 5.8
6.6 6.4 6.3 6.3 6.1 6.1 6.0 6.1 5.8 5.9 6.1 6.2 6.2 6.3 6.2 6.2 6.1 6.0 5.8 5.8 5.7 5.6 5.3 5.1 5.2 5.4 5.3 5.5 4.7 5.0 5.4 5.2 5.0 5.0 4.9 4.8 5.1 4.4 4.6 4.9 4.8 5.1 4.8 5.0 5.1 5.3 5.4
6.1 6.4 6.2 6.1 6.0 6.2 6.1 6.2 5.9 5.8 5.7 6.0 6.1 6.1 6.2 6.1 6.0 5.9 5.9 5.7 5.6 5.6 5.5 5.2 5.3 5.4 5.6 5.1 5.3 5.2 5.4 5.3 5.1 4.9 4.7 4.7 4.7 4.5 4.7 5.1 4.7 4.8 4.9 4.6 5.0 5.4 5.4
6.0 6.0 6.1 6.1 6.0 5.9 6.0 5.8 5.8 5.8 5.7 5.6 5.8 5.9 6.1 6.0 6.0 5.9 5.8 5.7 5.6 5.6 5.4 5.4 5.4 5.5 5.8 5.2 5.3 5.5 5.2 5.2 4.9 5.0 4.7 4.6 4.5 4.5 4.1 4.5 4.3 4.3 4.2 4.5 5.2 5.2 5.4
5.8 5.6 5.6 5.6 5.6 5.6 5.8 5.7 5.6 5.6 5.6 5.6 5.4 5.2 5.8 6.0 5.9 5.7 5.7 5.6 5.6 5.6 5.4 5.2 5.4 5.5 5.7 5.8 5.3 5.4 5.5 5.0 4.7 4.6 4.7 4.3 3.7 3.9 3.9 4.3 4.3 4.3 4.3 4.6 4.3 5.0 4.9
5.4 5.3 5.2 5.2 5.2 5.2 5.3 5.4 5.3 5.4 5.4 5.6 5.5 5.1 5.1 5.3 5.9 5.7 5.6 5.5 5.6 5.6 5.4 5.3 5.5 5.4 5.7 5.6 5.3 5.2 5.4 5.4 5.0 4.8 4.4 4.5 4.0 3.8 3.6 4.2 4.3 4.7 4.5 4.6 4.6 4.9 5.1
5.3 5.1 5.0 5.0 5.0 5.0 5.0 5.0 5.2 4.8 5.1 5.3 5.5 5.4 5.2 5.0 5.2 5.5 5.5 5.5 5.5 5.4 5.5 5.7 5.2 5.4 5.7 5.9 5.7 5.3 5.3 5.3 5.1 4.9 4.5 4.3 4.0 3.7 4.4 4.5 4.4 4.2 4.4 4.3 4.5 4.6 4.8
5.0 4.9 4.8 4.8 4.8 4.7 4.7 4.9 5.0 4.9 4.8 4.8 5.5 5.3 5.3 5.1 5.2 5.0 5.3 5.5 5.7 5.2 5.3 5.4 5.4 5.4 5.7 5.9 5.8 5.5 5.2 5.1 4.6 4.6 4.7 4.0 3.9 4.5 4.3 4.2 4.2 4.3 4.1 4.0 4.3 4.4 4.7
4.5 4.3 4.2 4.3 4.6 4.8 5.0 4.8 4.9 4.8 4.8 4.8 5.4 5.5 5.2 5.1 4.7 4.9 5.2 5.5 5.3 4.9 4.8 5.4 5.5 5.6 5.7 5.2 5.5 5.5 5.4 4.6 4.3 4.1 4.1 4.2 4.3 4.6 4.0 4.3 4.2 4.1 3.9 3.9 4.1 4.5 4.7
4.2 3.8 3.4 3.6 3.7 4.1 4.5 3.9 3.7 4.3 5.1 5.4 5.5 5.6 5.2 5.0 4.9 4.6 4.9 5.3 5.0 5.0 4.7 5.4 5.8 5.4 5.6 5.0 4.7 5.6 5.2 4.4 3.9 4.0 3.6 3.5 3.6 4.2 4.3 4.3 4.6 4.2 4.6 4.6 4.4 4.2 4.0
4.0 3.1 3.0 3.5 4.2 4.5 4.9 5.2 5.0 4.5 4.7 5.8 5.8 6.3 5.9 5.0 5.1 5.4 5.7 5.0 4.7 5.1 3.3 5.5 5.2 5.3 5.3 5.0 4.9 5.4 5.3 4.2 3.9 3.8 3.9 3.9 4.2 4.9 4.6 4.8 5.1 3.7 5.2 4.7 4.7 4.5 4.4
3.4 3.5 4.2 5.0 5.1 5.1 5.3 5.3 5.5 5.2 4.9 5.1 5.9 6.3 6.6 6.4 5.1 5.2 5.2 4.6 4.8 4.9 3.4 5.5 5.2 5.1 4.9 5.0 4.8 4.8 4.8 4.0 4.1 4.3 4.2 4.4 4.7 4.6 5.1 5.6 5.3 4.8 5.1 5.3 5.3 5.1 4.2
3.7 4.8 5.3 5.3 5.0 5.5 6.0 6.2 6.1 5.7 5.7 5.5 5.7 6.1 6.2 6.7 6.4 5.6 5.3 5.1 4.7 3.9 5.4 5.2 5.5 5.6 5.4 5.0 4.6 4.4 4.3 4.1 4.5 4.8 4.6 5.1 5.0 5.0 5.2 5.8 5.8 5.8 5.8 6.2 6.3 5.7 5.0
4.4 5.5 5.5 5.3 5.4 5.9 6.7 7.4 6.7 6.2 6.0 5.7 5.7 6.2 6.5 6.6 6.4 6.1 5.5 5.1 4.4 5.3 5.6 5.5 5.5 5.4 5.6 5.4 5.1 4.6 4.4 4.8 4.9 5.4 5.7 5.6 5.6 5.8 5.8 6.6 7.0 6.8 6.8 6.4 6.8 6.3 5.9
5.1 5.6 5.6 5.5 5.7 7.0 7.8 7.3 7.1 6.7 6.6 5.8 5.3 5.3 5.9 6.1 6.2 6.2 5.8 4.8 5.6 5.8 5.5 5.6 5.2 4.5 4.9 4.6 4.4 4.5 4.9 4.9 5.1 6.0 6.3 6.5 6.3 6.9 7.3 7.6 6.7 6.7 6.9 7.0 7.1 7.0 7.0
5.4 5.8 5.7 5.5 6.1 7.6 7.5 7.2 7.5 7.5 6.6 5.6 5.3 5.3 5.4 6.6 6.3 5.8 5.5 5.5 5.8 5.9 5.9 5.5 5.5 5.4 4.8 4.8 4.6 4.6 4.6 5.4 5.4 6.2 6.3 6.5 6.4 6.9 7.1 7.0 6.6 6.6 7.0 6.9 6.7 7.1 6.8
5.4 5.7 5.7 5.7 6.4 7.4 7.0 6.8 7.4 7.1 6.3 5.9 5.5 5.5 5.6 6.5 6.2 6.0 5.1 5.6 6.0 6.0 5.8 5.3 5.3 5.1 4.8 5.1 5.2 4.7 5.1 5.4 5.9 6.3 6.0 6.1 6.4 6.6 6.9 6.9 7.4 7.0 7.0 6.9 6.9 7.2 6.1
5.3 5.5 5.6 5.8 6.4 7.3 7.3 6.8 7.1 7.0 7.0 6.1 5.7 5.5 5.8 6.3 6.0 5.5 5.3 6.2 6.2 6.0 5.5 5.3 5.1 4.8 5.1 5.3 5.0 4.9 5.3 5.5 5.5 5.9 6.0 6.1 5.9 6.0 6.8 7.2 7.2 7.2 7.4 7.5 7.2 6.7 6.4
5.0 5.3 5.2 5.3 5.6 6.9 7.3 7.1 6.9 6.6 6.8 5.5 6.2 6.1 5.9 6.1 5.4 5.6 6.1 6.0 5.6 5.7 5.6 5.2 5.1 5.1 5.3 5.2 4.8 5.5 5.7 5.9 5.6 5.6 6.1 6.3 5.7 5.9 6.4 6.4 6.5 6.8 7.0 7.2 7.1 7.4 6.9
4.6 5.0 5.0 5.0 5.1 6.1 7.0 6.6 6.7 6.1 5.6 5.9 6.0 6.3 5.7 6.1 5.6 6.1 5.9 5.9 5.7 5.7 5.2 5.2 5.5 5.4 5.2 5.0 4.8 5.2 5.8 5.9 6.1 5.8 5.9 5.7 5.9 5.9 6.1 6.5 6.5 6.5 7.1 7.2 7.0 6.5 6.2
4.3 4.7 4.8 4.7 5.0 5.5 6.1 6.3 6.0 5.5 6.0 6.5 6.1 5.7 6.1 5.3 5.8 6.2 6.1 5.8 6.0 5.6 5.6 5.6 5.1 5.5 5.4 5.1 5.0 5.0 5.4 5.8 5.7 5.6 5.5 5.5 5.5 5.8 5.9 5.9 5.8 6.0 6.3 6.7 6.1 6.4 5.9
4.0 4.4 4.5 4.5 4.8 5.4 5.8 6.0 5.6 5.8 6.0 6.2 6.6 6.2 6.0 6.3 6.1 6.0 6.1 6.1 6.0 6.2 5.9 5.8 5.5 5.7 5.7 5.4 5.2 5.3 5.7 5.5 5.8 5.5 5.6 5.7 5.5 4.9 5.2 5.1 5.4 5.1 5.3 5.5 5.9 5.8 5.7
3.8 4.1 4.1 4.2 4.3 4.8 5.1 5.2 6.0 5.8 6.3 6.5 6.4 6.4 6.3 6.6 6.3 6.0 6.0 6.3 6.3 6.0 6.0 5.9 5.8 5.7 5.7 5.4 5.5 5.2 5.3 5.1 5.5 5.3 5.4 5.2 5.0 4.7 5.1 5.5 5.6 4.7 5.0 5.1 5.5 6.0 5.5
3.7 3.7 3.7 3.4 3.6 4.4 4.7 5.6 5.7 5.4 5.9 6.5 6.6 6.4 6.3 6.3 6.1 6.4 6.7 6.4 6.2 6.1 6.1 5.7 5.8 5.6 5.7 5.5 5.4 5.2 5.2 5.2 5.0 5.5 5.2 5.1 5.1 4.6 4.9 5.8 5.9 5.6 6.0 6.1 5.5 5.5 5.5
3.8 3.8 3.4 3.5 3.6 4.0 4.4 5.3 5.6 5.6 6.0 6.3 6.2 6.4 6.5 6.4 6.9 6.8 6.4 6.2 6.4 6.2 5.7 5.7 5.7 5.7 5.5 5.7 5.5 5.1 5.1 5.0 5.1 5.5 5.4 5.2 5.0 4.8 5.3 5.4 5.9 5.7 5.5 5.4 5.1 5.3 5.5
3.7 3.9 3.6 3.4 3.5 3.9 4.4 5.3 5.7 5.6 6.1 6.5 6.2 6.3 6.2 6.5 6.5 6.3 6.3 6.3 6.3 6.2 5.7 5.8 5.7 5.7 5.5 5.6 5.3 4.9 4.7 5.0 5.0 5.1 5.3 5.1 5.0 4.8 5.2 5.0 6.0 6.3 6.4 5.9 5.5 5.8 6.6
3.6 3.9 3.8 3.4 3.4 3.8 4.1 4.8 5.5 5.9 6.1 6.7 6.6 6.4 6.6 6.5 6.3 6.3 6.4 6.3 6.2 6.1 5.8 5.9 6.1 5.8 5.3 5.2 5.1 5.2 5.0 5.4 5.2 5.1 5.2 5.1 5.2 5.0 5.1 5.2 6.5 6.3 6.2 6.1 5.9 7.2 7.3
3.8 3.9 3.8 3.7 3.4 3.7 4.3 5.2 5.8 5.8 6.0 6.6 6.6 6.3 6.4 6.5 6.3 6.4 6.4 6.3 6.2 6.2 5.7 5.8 5.5 5.4 5.2 5.4 5.4 5.4 5.2 5.4 5.6 5.4 5.3 5.5 5.2 5.3 5.3 5.5 5.8 6.8 6.6 6.7 6.9 7.1 7.0
3.8 4.0 3.9 3.6 3.6 3.8 4.2 5.2 5.9 5.9 6.2 6.4 6.4 6.4 6.5 6.5 6.4 6.5 6.3 6.2 6.3 6.1 5.7 5.6 5.3 5.4 5.4 5.5 5.8 5.9 5.5 5.8 5.8 5.7 5.4 5.4 5.8 5.9 6.1 6.2 6.4 6.7 6.8 7.0 7.1 7.2 7.3
Wind_Speed
26 28 28 28 28 30 28 21 19 18 17 17 17 16 15 15 13 12 10 9 6 3 1 1 2 1 2 3 7 4 5 6 4 8 7 5 3 2 3 3 3 6 2 5 6 10 12
25 27 29 30 29 29 30 29 22 18 19 18 17 19 17 16 14 12 10 9 7 4 1 1 1 2 1 4 4 3 5 5 3 5 5 7 5 5 4 4 4 4 5 6 7 12 7
26 26 25 27 30 31 29 31 31 21 20 20 19 18 18 17 15 14 11 10 8 7 4 3 1 1 1 10 2 1 5 1 2 3 4 4 4 2 2 3 3 4 7 7 7 4 6
27 27 28 30 27 32 29 28 29 27 21 22 21 21 22 19 16 13 12 10 6 5 6 5 2 2 6 4 8 5 3 1 5 5 3 5 6 6 5 6 4 4 3 3 3 10 7
30 32 30 28 32 31 32 31 29 27 26 25 23 22 21 20 17 14 12 9 4 4 5 3 2 2 7 5 2 5 3 4 2 3 3 3 3 4 1 3 6 6 8 5 4 7 6
30 31 33 29 30 31 32 32 33 30 27 28 25 22 24 23 19 15 10 8 2 2 2 3 2 1 4 3 3 2 4 5 2 3 3 4 4 3 3 6 11 5 4 3 6 0 4
29 31 30 31 28 33 34 32 32 31 29 27 27 23 25 26 21 18 10 5 3 1 4 7 6 3 1 2 3 2 3 6 3 4 5 0 5 9 13 8 6 5 9 12 7 7 6
30 30 32 33 35 31 35 32 32 31 32 28 28 25 25 25 22 21 9 5 4 3 4 14 9 11 3 3 2 2 6 6 5 6 5 1 11 7 6 6 8 11 13 14 12 9 11
30 30 30 32 33 32 34 33 31 28 30 28 24 25 23 28 23 14 10 7 5 2 2 5 7 8 5 6 5 6 9 5 4 7 7 11 5 7 7 9 9 9 9 11 12 7 14
29 30 31 30 31 32 32 33 31 26 32 31 22 26 24 27 14 9 8 7 6 3 2 5 5 5 5 4 6 10 10 5 4 10 10 12 13 13 10 11 9 17 6 10 11 5 8
29 32 32 29 30 29 31 34 30 28 30 33 22 21 21 27 13 8 8 13 6 4 2 3 2 2 8 9 3 5 6 4 9 7 5 6 6 11 18 18 9 9 6 9 9 7 7
30 31 32 34 30 32 29 32 33 31 35 30 17 22 16 11 6 8 20 12 4 4 7 5 3 5 7 6 2 3 8 7 3 10 12 7 3 6 6 9 14 2 6 11 5 8 13
30 31 30 32 31 31 28 30 34 34 39 23 12 18 15 12 9 20 16 7 5 4 1 6 5 6 8 5 5 6 10 10 7 6 9 8 17 1 3 4 6 10 5 3 6 8 8
31 31 26 31 32 29 31 30 32 37 33 19 10 17 11 6 25 21 11 4 4 4 5 3 4 6 6 7 5 7 8 10 13 3 2 8 6 18 9 7 6 12 13 6 6 4 5
31 29 29 30 32 32 33 33 33 40 30 12 9 3 4 8 28 14 12 4 7 6 6 8 8 5 7 7 3 10 12 11 8 16 8 3 5 3 7 17 8 5 10 19 13 12 5
30 31 29 29 31 30 31 33 35 37 26 17 2 3 6 18 24 12 8 8 5 4 6 4 7 9 8 9 9 8 7 3 12 12 14 4 4 5 4 5 8 12 5 4 6 5 5
30 29 29 29 28 29 30 31 33 33 27 24 3 5 5 15 11 10 6 5 4 4 4 6 7 8 6 6 9 8 5 3 10 8 16 6 4 2 2 9 12 7 12 7 4 6 4
30 29 30 28 29 29 30 30 32 30 24 8 1 2 11 13 9 6 4 6 6 4 4 3 2 9 9 7 8 6 7 7 8 10 11 11 4 5 14 3 8 11 11 16 4 5 6
30 29 28 27 29 28 28 30 32 30 20 3 3 3 12 11 5 8 4 5 1 4 5 6 7 8 10 7 3 8 5 9 12 12 14 10 4 4 4 4 5 7 9 16 16 5 8
30 29 26 26 27 27 27 29 31 30 26 5 3 3 5 6 0 11 12 8 7 5 9 8 4 8 7 7 7 3 5 4 12 12 10 11 4 6 7 4 1 6 14 19 18 10 12
29 29 27 25 27 27 27 30 32 29 28 5 2 4 5 9 7 13 12 6 9 6 6 9 4 11 9 5 8 7 7 4 4 10 5 6 6 9 16 18 12 11 10 20 21 24 13
29 27 26 24 26 26 27 29 30 26 33 2 2 3 4 7 13 13 14 10 8 12 6 5 7 9 12 7 6 5 5 5 5 7 9 6 4 3 8 16 23 19 18 16 23 20 20
29 28 26 24 23 25 26 27 29 25 18 2 3 2 4 13 11 12 10 9 12 5 7 8 11 10 9 11 15 13 4 6 4 9 9 5 2 2 9 11 7 9 26 21 20 18 15
29 26 27 23 24 25 25 28 29 24 16 3 2 2 2 6 11 14 9 10 8 7 6 3 7 9 4 3 4 4 5 5 5 8 11 6 4 2 5 3 1 5 2 16 20 13 12
28 25 26 23 24 24 23 27 29 26 25 6 2 3 0 4 10 11 10 4 6 6 10 14 7 5 3 3 2 2 0 3 6 7 14 6 5 3 3 3 2 5 6 9 9 10 16
27 26 23 23 22 24 23 27 29 28 28 9 5 1 2 4 8 7 11 5 3 4 2 3 1 3 3 3 3 4 4 4 3 2 3 3 2 2 4 3 4 2 9 11 13 5 16
27 25 23 22 21 22 24 24 27 27 28 12 3 2 2 3 1 4 3 5 5 2 1 0 2 3 8 6 6 4 4 2 3 6 4 3 3 5 4 2 6 3 2 7 5 5 7
26 24 23 22 22 22 24 25 26 26 27 14 6 5 2 2 0 3 3 4 3 3 3 3 2 3 4 5 3 3 3 5 2 2 4 5 4 3 2 1 4 1 1 5 3 2 3
23 23 23 22 22 22 23 23 24 24 25 20 3 3 3 3 1 1 2 1 3 5 4 3 2 1 3 3 2 2 2 2 5 2 2 3 5 4 7 5 3 3 2 1 2 4 2
Wind_Direction
348 341 337 336 337 339 344 283 275 270 270 264 242 220 229 236 240 245 250 251 255 240 222 17 16 43 105 218 253 309 6 23 106 157 166 182 191 151 223 252 272 233 258 278 276 269 275
350 349 345 343 337 331 335 331 281 271 263 263 250 225 217 227 232 237 238 249 249 244 199 245 20 78 103 230 241 61 28 352 92 119 157 157 203 207 287 249 227 295 289 277 261 261 263
347 344 344 341 339 334 332 331 326 277 267 261 254 229 211 217 223 226 228 241 242 238 223 227 195 71 252 241 260 237 26 29 279 159 150 205 172 189 201 275 265 267 294 290 240 236 245
349 343 345 339 339 336 336 330 326 335 275 262 250 237 209 207 210 218 221 235 235 274 211 215 181 99 247 266 272 284 145 220 217 208 173 163 177 216 252 317 313 283 248 264 238 194 229
347 344 339 343 338 336 330 333 325 323 324 272 261 238 210 200 199 207 212 211 225 228 185 189 90 99 267 310 188 243 153 163 159 161 199 203 147 204 217 244 272 196 255 235 316 220 230
347 340 337 336 336 332 330 326 328 317 315 316 267 253 220 189 192 193 202 168 132 141 158 68 347 328 254 227 196 199 188 148 129 117 70 179 158 198 170 201 230 249 259 247 219 157 298
343 340 337 329 330 330 328 325 323 321 318 315 308 259 223 191 183 180 142 102 62 316 224 201 195 235 264 218 123 148 168 113 104 87 170 263 202 204 214 225 252 313 296 279 298 303 336
341 339 338 334 329 330 323 322 319 320 320 308 313 263 227 186 177 163 136 163 200 165 251 235 238 245 301 12 168 168 146 146 153 193 131 305 242 220 211 211 239 252 265 273 276 275 294
337 335 338 336 330 325 321 323 318 319 323 308 293 268 227 179 164 152 183 175 146 125 277 269 203 222 221 183 220 207 160 144 168 185 180 217 211 209 222 237 238 240 240 260 264 295 282
335 335 334 334 326 326 323 326 319 314 330 319 316 289 232 166 155 156 189 169 150 90 341 235 194 240 170 158 250 195 184 146 200 202 218 248 241 237 255 240 216 254 186 233 252 252 258
333 332 334 336 322 323 325 329 318 322 323 318 311 305 234 159 132 169 164 141 143 64 360 142 167 337 150 172 140 195 171 191 196 183 157 219 209 218 232 235 210 244 229 226 237 241 274
330 329 333 332 328 324 331 328 326 330 323 312 289 308 286 147 120 155 137 125 82 62 251 174 127 167 165 199 192 96 172 214 57 211 218 234 186 189 219 241 214 280 241 255 250 236 249
328 328 331 328 330 329 336 331 331 329 322 306 299 320 321 153 154 142 135 125 112 188 82 173 180 172 189 172 206 184 187 195 208 189 221 212 236 245 248 194 175 193 220 263 214 217 241
326 329 331 325 325 327 333 339 328 327 324 304 306 318 307 161 133 148 143 119 154 210 188 113 131 135 189 167 214 203 195 219 217 167 243 213 235 206 203 211 170 194 195 204 238 218 225
326 329 332 327 329 334 339 334 332 330 324 304 316 187 287 187 145 155 145 184 198 200 161 145 141 172 201 203 200 205 223 235 214 207 230 213 257 164 226 211 192 168 214 216 251 267 274
327 326 329 329 331 337 338 334 342 334 335 336 321 108 239 169 146 156 160 194 202 206 128 150 175 190 196 192 193 189 190 222 222 185 191 233 261 216 186 143 221 219 150 191 195 231 240
330 330 328 330 333 339 337 334 339 337 342 332 220 136 194 151 134 161 190 196 194 214 146 161 205 195 214 192 192 197 217 254 203 195 181 176 184 268 119 203 190 198 231 238 211 210 220
332 333 328 335 334 336 337 337 341 339 340 302 136 96 154 157 157 182 169 171 186 173 180 198 220 216 197 193 195 215 215 238 183 148 186 200 196 227 228 217 202 212 221 209 232 255 236
332 337 332 333 334 336 335 341 338 342 352 311 161 203 152 180 160 171 154 186 196 172 181 182 217 206 193 211 215 194 195 223 180 172 173 175 218 240 224 213 203 210 207 213 223 280 214
336 339 335 335 332 339 336 342 338 339 334 311 192 142 132 204 287 174 181 192 183 225 246 203 275 171 199 232 226 249 234 256 187 192 172 155 236 234 234 256 67 202 203 204 210 235 246
337 339 337 337 333 340 340 342 342 339 336 310 157 166 162 186 193 164 185 185 179 205 214 204 242 235 204 230 208 229 218 249 154 147 142 206 245 214 240 250 251 219 221 200 213 219 220
336 338 338 334 341 340 343 342 343 350 344 322 218 150 156 154 169 172 183 214 203 207 228 200 222 215 224 237 216 209 220 200 182 165 194 197 270 239 256 234 240 239 222 237 215 215 239
337 342 342 346 340 341 342 342 345 359 350 325 296 314 125 163 164 179 200 200 220 208 223 227 200 231 247 242 230 250 267 268 212 165 193 191 247 270 286 301 162 225 229 215 216 210 214
338 340 341 347 343 343 343 343 344 350 346 286 265 264 154 165 194 188 161 198 231 208 239 242 206 214 215 18 309 200 245 250 242 213 170 182 183 205 274 313 298 284 163 198 195 186 201
335 340 345 343 346 342 342 339 343 349 344 327 265 263 262 134 183 189 211 192 215 247 245 245 225 219 108 312 276 216 239 235 231 218 204 188 176 266 298 284 227 65 151 164 175 244 244
336 339 342 341 345 339 343 339 343 348 348 338 309 175 272 128 192 148 178 174 187 198 252 229 59 114 144 220 245 209 214 231 252 307 158 176 326 302 332 341 39 36 164 157 175 263 206
335 335 340 339 340 337 340 339 343 349 352 344 267 325 313 99 138 129 158 172 161 138 211 200 249 226 194 191 215 198 211 178 185 175 194 161 189 211 269 289 292 247 135 113 161 255 161
334 334 333 338 335 336 339 341 342 351 354 352 290 287 321 99 199 183 148 135 121 157 182 159 241 202 199 174 186 197 195 215 177 200 179 173 166 206 137 292 316 53 159 185 214 6 141
333 333 332 336 334 334 335 339 341 350 351 350 311 319 265 87 158 346 274 266 171 169 162 185 276 259 264 140 227 244 196 148 170 248 136 227 186 187 178 212 258 305 317 4 151 137 135